Location: Newark
(33.6333°S, 78.8500°W)
Time: 22:27:35
(UTC+00:00)

Tiros 1 - Pass Details

Date: 20 October 2019
Orbit: 630 x 664 km, 48.4° (Epoch: 14 November)

Event Time Altitude Azimuth Distance (km) Brightness Sun altitude
Rises 01:07:59 0° 230° (SW) 2,939 12.0 -19.6°
Reaches altitude 10° 01:10:19 10° 227° (SW) 2,028 10.8 -20.0°
Maximum altitude 01:14:59 70° 143° (SE) 678 7.1 -20.9°
Enters shadow 01:15:54 54° 82° (E) 776 7.1 -21.0°
Drops below altitude 10° 01:19:37 10° 59° (ENE) 2,022 - -21.7°
Sets 01:21:57 0° 56° (NE) 2,930 - -22.1°
